Time,TemperatureF,DewpointF,PressureIn,WindDirection,WindDirectionDegrees,WindSpeedMPH,WindSpeedGustMPH,Humidity,HourlyPrecipIn,Conditions,Clouds,dailyrainin,SoftwareType,DateUTC
2013-08-26 00:01:00,66.7,63.0,30.22,WSW,240,0.0,0.0,88,0.00,,,0.00,WUHU216DAVISVP2,2013-08-26 04:01:00,
2013-08-26 00:06:00,66.7,63.0,30.22,WSW,240,0.0,0.0,88,0.00,,,0.00,WUHU216DAVISVP2,2013-08-26 04:06:00,
2013-08-26 00:11:00,66.5,62.8,30.22,WSW,241,0.0,0.0,88,0.00,,,0.00,WUHU216DAVISVP2,2013-08-26 04:11:00,
2013-08-26 00:16:00,66.3,62.6,30.22,SW,228,0.0,0.0,88,0.00,,,0.00,WUHU216DAVISVP2,2013-08-26 04:16:00,
2013-08-26 00:21:00,66.1,62.4,30.21,SW,229,0.0,0.0,88,0.00,,,0.00,WUHU216DAVISVP2,2013-08-26 04:21:00,
2013-08-26 00:26:00,66.0,62.6,30.21,SSW,198,0.0,0.0,89,0.00,,,0.00,WUHU216DAVISVP2,2013-08-26 04:26:00,
2013-08-26 00:31:00,66.1,62.7,30.21,SSW,198,0.0,0.0,89,0.00,,,0.00,WUHU216DAVISVP2,2013-08-26 04:31:00,
2013-08-26 00:36:00,66.3,62.9,30.21,SSW,193,0.0,0.0,89,0.00,,,0.00,WUHU216DAVISVP2,2013-08-26 04:36:00,
2013-08-26 00:41:00,66.5,63.1,30.21,SSW,193,0.0,0.0,89,0.00,,,0.00,WUHU216DAVISVP2,2013-08-26 04:41:00,
2013-08-26 00:46:00,66.5,62.8,30.21,SSW,201,0.0,0.0,88,0.00,,,0.00,WUHU216DAVISVP2,2013-08-26 04:46:00,
2013-08-26 00:51:00,66.6,62.9,30.21,SSW,210,0.0,0.0,88,0.00,,,0.00,WUHU216DAVISVP2,2013-08-26 04:51:00,
2013-08-26 00:56:00,66.5,62.8,30.21,SSW,207,0.0,0.0,88,0.00,,,0.00,WUHU216DAVISVP2,2013-08-26 04:56:00,
2013-08-26 01:01:00,66.4,62.7,30.21,SSW,207,0.0,0.0,88,0.00,,,0.00,WUHU216DAVISVP2,2013-08-26 05:01:00,
2013-08-26 01:06:00,66.3,62.6,30.21,SSW,207,0.0,0.0,88,0.00,,,0.00,WUHU216DAVISVP2,2013-08-26 05:06:00,
2013-08-26 01:11:00,66.1,62.4,30.21,SSW,207,0.0,0.0,88,0.00,,,0.00,WUHU216DAVISVP2,2013-08-26 05:11:00,
2013-08-26 01:16:00,66.0,62.6,30.21,SSW,207,0.0,0.0,89,0.00,,,0.00,WUHU216DAVISVP2,2013-08-26 05:16:00,
2013-08-26 01:21:00,66.0,62.6,30.21,SSW,207,0.0,0.0,89,0.00,,,0.00,WUHU216DAVISVP2,2013-08-26 05:21:00,
2013-08-26 01:26:00,66.0,62.3,30.21,SSW,207,0.0,0.0,88,0.00,,,0.00,WUHU216DAVISVP2,2013-08-26 05:26:00,
2013-08-26 01:31:00,65.8,62.1,30.21,SW,228,0.0,0.0,88,0.00,,,0.00,WUHU216DAVISVP2,2013-08-26 05:31:00,
2013-08-26 01:36:00,65.7,62.4,30.21,SW,225,0.0,0.0,89,0.00,,,0.00,WUHU216DAVISVP2,2013-08-26 05:36:00,
2013-08-26 01:41:00,65.7,62.4,30.21,SW,225,0.0,0.0,89,0.00,,,0.00,WUHU216DAVISVP2,2013-08-26 05:41:00,
2013-08-26 01:46:00,65.8,62.5,30.20,SW,225,0.0,0.0,89,0.00,,,0.00,WUHU216DAVISVP2,2013-08-26 05:46:00,
2013-08-26 01:51:00,65.7,62.4,30.20,SW,225,0.0,0.0,89,0.00,,,0.00,WUHU216DAVISVP2,2013-08-26 05:51:00,
2013-08-26 01:56:00,65.6,62.3,30.20,SW,225,0.0,0.0,89,0.00,,,0.00,WUHU216DAVISVP2,2013-08-26 05:56:00,
2013-08-26 02:01:00,65.4,62.1,30.20,SW,221,0.0,0.0,89,0.00,,,0.00,WUHU216DAVISVP2,2013-08-26 06:01:00,
2013-08-26 02:06:00,65.1,62.1,30.19,SW,219,0.0,0.0,90,0.00,,,0.00,WUHU216DAVISVP2,2013-08-26 06:06:00,
2013-08-26 02:11:00,64.9,61.9,30.19,SSW,200,0.0,0.0,90,0.00,,,0.00,WUHU216DAVISVP2,2013-08-26 06:11:00,
2013-08-26 02:16:00,65.0,62.3,30.19,SW,225,0.0,1.0,91,0.00,,,0.00,WUHU216DAVISVP2,2013-08-26 06:16:00,
2013-08-26 02:21:00,65.3,62.6,30.19,SW,217,0.0,1.0,91,0.00,,,0.00,WUHU216DAVISVP2,2013-08-26 06:21:00,
2013-08-26 02:26:00,65.5,62.5,30.19,SSW,206,0.0,1.0,90,0.00,,,0.00,WUHU216DAVISVP2,2013-08-26 06:26:00,
2013-08-26 02:31:00,65.5,62.5,30.18,SSW,200,0.0,1.0,90,0.00,,,0.00,WUHU216DAVISVP2,2013-08-26 06:31:00,
2013-08-26 02:36:00,65.6,62.6,30.18,SSW,203,0.0,1.0,90,0.00,,,0.00,WUHU216DAVISVP2,2013-08-26 06:36:00,
2013-08-26 02:41:00,65.7,62.4,30.18,SSW,204,0.0,0.0,89,0.00,,,0.00,WUHU216DAVISVP2,2013-08-26 06:41:00,
2013-08-26 02:46:00,65.7,62.4,30.18,SSW,210,0.0,1.0,89,0.00,,,0.00,WUHU216DAVISVP2,2013-08-26 06:46:00,
2013-08-26 02:51:00,65.9,62.6,30.18,SSW,200,0.0,1.0,89,0.00,,,0.00,WUHU216DAVISVP2,2013-08-26 06:51:00,
2013-08-26 02:56:00,66.1,62.7,30.17,SSW,205,0.0,1.0,89,0.00,,,0.00,WUHU216DAVISVP2,2013-08-26 06:56:00,
2013-08-26 03:01:00,66.2,62.5,30.17,SSW,201,0.0,2.0,88,0.00,,,0.00,WUHU216DAVISVP2,2013-08-26 07:01:00,
2013-08-26 03:06:00,66.5,62.8,30.17,South,190,0.0,4.0,88,0.00,,,0.00,WUHU216DAVISVP2,2013-08-26 07:06:00,
2013-08-26 03:11:00,66.6,62.9,30.17,SSW,210,0.0,5.0,88,0.00,,,0.00,WUHU216DAVISVP2,2013-08-26 07:11:00,
2013-08-26 03:16:00,66.7,62.7,30.17,SSW,204,0.0,5.0,87,0.00,,,0.00,WUHU216DAVISVP2,2013-08-26 07:16:00,
2013-08-26 03:21:00,66.6,62.6,30.17,SSW,204,0.0,5.0,87,0.00,,,0.00,WUHU216DAVISVP2,2013-08-26 07:21:00,
2013-08-26 03:26:00,66.5,62.5,30.17,SSW,201,0.0,5.0,87,0.00,,,0.00,WUHU216DAVISVP2,2013-08-26 07:26:00,
2013-08-26 03:31:00,66.5,62.8,30.17,SW,216,0.0,3.0,88,0.00,,,0.00,WUHU216DAVISVP2,2013-08-26 07:31:00,
2013-08-26 03:36:00,66.5,62.8,30.16,SSW,207,0.0,4.0,88,0.00,,,0.00,WUHU216DAVISVP2,2013-08-26 07:36:00,
2013-08-26 03:41:00,66.6,62.9,30.16,South,176,0.0,4.0,88,0.00,,,0.00,WUHU216DAVISVP2,2013-08-26 07:41:00,
2013-08-26 03:46:00,66.6,62.9,30.17,SSW,210,0.0,4.0,88,0.00,,,0.00,WUHU216DAVISVP2,2013-08-26 07:46:00,
2013-08-26 03:51:00,66.5,62.8,30.17,SW,231,0.0,4.0,88,0.00,,,0.00,WUHU216DAVISVP2,2013-08-26 07:51:00,
2013-08-26 03:56:00,66.4,62.7,30.17,SSW,194,0.0,6.0,88,0.00,,,0.00,WUHU216DAVISVP2,2013-08-26 07:56:00,
2013-08-26 04:01:00,66.5,62.8,30.17,SW,233,0.0,8.0,88,0.00,,,0.00,WUHU216DAVISVP2,2013-08-26 08:01:00,
2013-08-26 04:06:00,66.6,62.9,30.17,SSW,205,0.0,8.0,88,0.00,,,0.00,WUHU216DAVISVP2,2013-08-26 08:06:00,
2013-08-26 04:11:00,66.6,62.9,30.17,SW,221,0.0,8.0,88,0.00,,,0.00,WUHU216DAVISVP2,2013-08-26 08:11:00,
2013-08-26 04:16:00,66.6,62.9,30.17,SW,231,0.0,8.0,88,0.00,,,0.00,WUHU216DAVISVP2,2013-08-26 08:16:00,
2013-08-26 04:21:00,66.6,62.6,30.17,SSW,212,0.0,4.0,87,0.00,,,0.00,WUHU216DAVISVP2,2013-08-26 08:21:00,
2013-08-26 04:26:00,66.5,62.5,30.17,SW,221,0.0,4.0,87,0.00,,,0.00,WUHU216DAVISVP2,2013-08-26 08:26:00,
2013-08-26 04:31:00,66.3,62.6,30.17,SW,231,0.0,3.0,88,0.00,,,0.00,WUHU216DAVISVP2,2013-08-26 08:31:00,
2013-08-26 04:36:00,65.9,62.2,30.18,WSW,240,0.0,3.0,88,0.00,,,0.00,WUHU216DAVISVP2,2013-08-26 08:36:00,
2013-08-26 04:41:00,65.4,62.1,30.17,WSW,250,0.0,1.0,89,0.00,,,0.00,WUHU216DAVISVP2,2013-08-26 08:41:00,
2013-08-26 04:46:00,65.0,61.7,30.17,SW,231,1.0,1.0,89,0.00,,,0.00,WUHU216DAVISVP2,2013-08-26 08:46:00,
2013-08-26 04:51:00,64.7,61.7,30.17,SW,228,0.0,1.0,90,0.00,,,0.00,WUHU216DAVISVP2,2013-08-26 08:51:00,
2013-08-26 04:56:00,64.6,61.6,30.18,WSW,243,0.0,1.0,90,0.00,,,0.00,WUHU216DAVISVP2,2013-08-26 08:56:00,
2013-08-26 05:01:00,64.3,61.3,30.18,WSW,243,0.0,1.0,90,0.00,,,0.00,WUHU216DAVISVP2,2013-08-26 09:01:00,
2013-08-26 05:06:00,64.1,61.1,30.18,SW,236,0.0,1.0,90,0.00,,,0.00,WUHU216DAVISVP2,2013-08-26 09:06:00,
2013-08-26 05:11:00,63.9,61.2,30.18,WSW,250,0.0,1.0,91,0.00,,,0.00,WUHU216DAVISVP2,2013-08-26 09:11:00,
2013-08-26 05:16:00,63.7,61.0,30.17,WSW,250,0.0,1.0,91,0.00,,,0.00,WUHU216DAVISVP2,2013-08-26 09:16:00,
2013-08-26 05:21:00,63.5,60.8,30.17,WSW,251,0.0,1.0,91,0.00,,,0.00,WUHU216DAVISVP2,2013-08-26 09:21:00,
2013-08-26 05:26:00,63.4,60.7,30.17,WSW,240,0.0,1.0,91,0.00,,,0.00,WUHU216DAVISVP2,2013-08-26 09:26:00,
2013-08-26 05:31:00,63.3,60.6,30.17,SW,235,0.0,0.0,91,0.00,,,0.00,WUHU216DAVISVP2,2013-08-26 09:31:00,
2013-08-26 05:36:00,63.3,60.6,30.17,WSW,238,0.0,0.0,91,0.00,,,0.00,WUHU216DAVISVP2,2013-08-26 09:36:00,
2013-08-26 05:41:00,63.4,60.7,30.17,SW,233,0.0,0.0,91,0.00,,,0.00,WUHU216DAVISVP2,2013-08-26 09:41:00,
2013-08-26 05:46:00,63.5,60.8,30.17,SW,225,0.0,0.0,91,0.00,,,0.00,WUHU216DAVISVP2,2013-08-26 09:46:00,
2013-08-26 05:51:00,63.6,60.9,30.17,SW,235,0.0,1.0,91,0.00,,,0.00,WUHU216DAVISVP2,2013-08-26 09:51:00,
2013-08-26 05:56:00,63.7,60.7,30.17,SW,222,0.0,1.0,90,0.00,,,0.00,WUHU216DAVISVP2,2013-08-26 09:56:00,
2013-08-26 06:01:00,63.7,60.7,30.17,SSW,210,0.0,1.0,90,0.00,,,0.00,WUHU216DAVISVP2,2013-08-26 10:01:00,
2013-08-26 06:06:00,63.7,60.7,30.17,SSW,210,0.0,0.0,90,0.00,,,0.00,WUHU216DAVISVP2,2013-08-26 10:06:00,
2013-08-26 06:11:00,63.6,60.6,30.17,SW,231,0.0,0.0,90,0.00,,,0.00,WUHU216DAVISVP2,2013-08-26 10:11:00,
2013-08-26 06:16:00,63.5,60.5,30.17,WSW,238,0.0,0.0,90,0.00,,,0.00,WUHU216DAVISVP2,2013-08-26 10:16:00,
2013-08-26 06:21:00,63.3,60.3,30.17,WSW,238,0.0,0.0,90,0.00,,,0.00,WUHU216DAVISVP2,2013-08-26 10:21:00,
2013-08-26 06:26:00,62.9,59.9,30.17,SW,225,0.0,0.0,90,0.00,,,0.00,WUHU216DAVISVP2,2013-08-26 10:26:00,
2013-08-26 06:31:00,62.7,60.0,30.17,WSW,238,0.0,0.0,91,0.00,,,0.00,WUHU216DAVISVP2,2013-08-26 10:31:00,
2013-08-26 06:36:00,62.8,60.1,30.17,SW,235,0.0,1.0,91,0.00,,,0.00,WUHU216DAVISVP2,2013-08-26 10:36:00,
2013-08-26 06:41:00,62.9,60.2,30.18,SW,228,0.0,1.0,91,0.00,,,0.00,WUHU216DAVISVP2,2013-08-26 10:41:00,
2013-08-26 06:46:00,63.0,60.3,30.18,SW,236,0.0,1.0,91,0.00,,,0.00,WUHU216DAVISVP2,2013-08-26 10:46:00,
2013-08-26 06:51:00,63.0,60.3,30.18,WSW,243,0.0,1.0,91,0.00,,,0.00,WUHU216DAVISVP2,2013-08-26 10:51:00,
2013-08-26 06:56:00,62.8,60.1,30.18,WSW,243,0.0,1.0,91,0.00,,,0.00,WUHU216DAVISVP2,2013-08-26 10:56:00,
2013-08-26 07:01:00,62.6,59.9,30.18,WSW,238,0.0,1.0,91,0.00,,,0.00,WUHU216DAVISVP2,2013-08-26 11:01:00,
2013-08-26 07:06:00,62.4,59.7,30.18,SW,235,0.0,0.0,91,0.00,,,0.00,WUHU216DAVISVP2,2013-08-26 11:06:00,
2013-08-26 07:11:00,62.3,59.6,30.18,SW,232,0.0,1.0,91,0.00,,,0.00,WUHU216DAVISVP2,2013-08-26 11:11:00,
2013-08-26 07:16:00,62.2,59.8,30.18,SW,228,0.0,1.0,92,0.00,,,0.00,WUHU216DAVISVP2,2013-08-26 11:16:00,
2013-08-26 07:21:00,62.4,60.0,30.18,WSW,238,0.0,1.0,92,0.00,,,0.00,WUHU216DAVISVP2,2013-08-26 11:21:00,
2013-08-26 07:26:00,62.9,60.2,30.18,SSW,207,0.0,2.0,91,0.00,,,0.00,WUHU216DAVISVP2,2013-08-26 11:26:00,
2013-08-26 07:31:00,63.5,60.8,30.18,SSW,207,0.0,2.0,91,0.00,,,0.00,WUHU216DAVISVP2,2013-08-26 11:31:00,
2013-08-26 07:36:00,64.2,61.2,30.18,SSW,205,0.0,2.0,90,0.00,,,0.00,WUHU216DAVISVP2,2013-08-26 11:36:00,
2013-08-26 07:41:00,64.9,61.3,30.18,SW,217,1.0,2.0,88,0.00,,,0.00,WUHU216DAVISVP2,2013-08-26 11:41:00,
2013-08-26 07:46:00,65.5,61.5,30.18,SSW,212,0.0,1.0,87,0.00,,,0.00,WUHU216DAVISVP2,2013-08-26 11:46:00,
2013-08-26 07:51:00,65.9,61.6,30.18,SSW,207,0.0,1.0,86,0.00,,,0.00,WUHU216DAVISVP2,2013-08-26 11:51:00,
2013-08-26 07:56:00,66.1,61.8,30.18,SW,231,0.0,1.0,86,0.00,,,0.00,WUHU216DAVISVP2,2013-08-26 11:56:00,
2013-08-26 08:01:00,66.5,62.2,30.19,SW,231,0.0,1.0,86,0.00,,,0.00,WUHU216DAVISVP2,2013-08-26 12:01:00,
2013-08-26 08:06:00,66.7,62.1,30.18,SW,214,0.0,1.0,85,0.00,,,0.00,WUHU216DAVISVP2,2013-08-26 12:06:00,
2013-08-26 08:11:00,66.9,62.3,30.19,SSW,210,0.0,1.0,85,0.00,,,0.00,WUHU216DAVISVP2,2013-08-26 12:11:00,
2013-08-26 08:16:00,67.1,62.5,30.18,SW,217,0.0,2.0,85,0.00,,,0.00,WUHU216DAVISVP2,2013-08-26 12:16:00,
2013-08-26 08:21:00,67.3,62.3,30.18,SSW,212,0.0,2.0,84,0.00,,,0.00,WUHU216DAVISVP2,2013-08-26 12:21:00,
2013-08-26 08:26:00,67.6,62.6,30.18,SW,224,0.0,2.0,84,0.00,,,0.00,WUHU216DAVISVP2,2013-08-26 12:26:00,
2013-08-26 08:31:00,68.0,63.0,30.18,WSW,238,0.0,4.0,84,0.00,,,0.00,WUHU216DAVISVP2,2013-08-26 12:31:00,
2013-08-26 08:36:00,68.3,63.0,30.18,SW,228,0.0,4.0,83,0.00,,,0.00,WUHU216DAVISVP2,2013-08-26 12:36:00,
2013-08-26 08:41:00,68.6,63.2,30.19,SW,214,0.0,4.0,83,0.00,,,0.00,WUHU216DAVISVP2,2013-08-26 12:41:00,
2013-08-26 08:46:00,69.0,63.6,30.19,SW,231,0.0,4.0,83,0.00,,,0.00,WUHU216DAVISVP2,2013-08-26 12:46:00,
2013-08-26 08:51:00,69.5,64.2,30.19,SSW,203,0.0,4.0,83,0.00,,,0.00,WUHU216DAVISVP2,2013-08-26 12:51:00,
2013-08-26 08:56:00,70.2,64.8,30.19,SW,228,1.0,4.0,83,0.00,,,0.00,WUHU216DAVISVP2,2013-08-26 12:56:00,
2013-08-26 09:01:00,70.9,65.5,30.18,SW,235,1.0,3.0,83,0.00,,,0.00,WUHU216DAVISVP2,2013-08-26 13:01:00,
2013-08-26 09:06:00,71.5,65.4,30.18,SW,220,1.0,5.0,81,0.00,,,0.00,WUHU216DAVISVP2,2013-08-26 13:06:00,
2013-08-26 09:11:00,72.0,65.9,30.18,South,172,2.0,5.0,81,0.00,,,0.00,WUHU216DAVISVP2,2013-08-26 13:11:00,
2013-08-26 09:16:00,72.3,66.2,30.18,South,179,2.0,5.0,81,0.00,,,0.00,WUHU216DAVISVP2,2013-08-26 13:16:00,
2013-08-26 09:21:00,72.7,66.6,30.18,SW,220,2.0,5.0,81,0.00,,,0.00,WUHU216DAVISVP2,2013-08-26 13:21:00,
2013-08-26 09:26:00,73.2,67.1,30.18,SW,224,6.0,10.0,81,0.00,,,0.00,WUHU216DAVISVP2,2013-08-26 13:26:00,
2013-08-26 09:31:00,73.5,67.4,30.17,SW,225,2.0,10.0,81,0.00,,,0.00,WUHU216DAVISVP2,2013-08-26 13:31:00,
2013-08-26 09:36:00,74.0,67.9,30.18,WSW,255,3.0,9.0,81,0.00,,,0.00,WUHU216DAVISVP2,2013-08-26 13:36:00,
2013-08-26 09:41:00,74.4,68.3,30.17,SSW,207,1.0,9.0,81,0.00,,,0.00,WUHU216DAVISVP2,2013-08-26 13:41:00,
2013-08-26 09:46:00,74.6,68.5,30.17,West,266,3.0,9.0,81,0.00,,,0.00,WUHU216DAVISVP2,2013-08-26 13:46:00,
2013-08-26 09:51:00,74.9,68.8,30.17,SW,223,3.0,9.0,81,0.00,,,0.00,WUHU216DAVISVP2,2013-08-26 13:51:00,
2013-08-26 09:56:00,75.4,69.2,30.17,SW,228,5.0,9.0,81,0.00,,,0.00,WUHU216DAVISVP2,2013-08-26 13:56:00,
2013-08-26 10:01:00,75.8,69.6,30.17,SW,231,2.0,9.0,81,0.00,,,0.00,WUHU216DAVISVP2,2013-08-26 14:01:00,
2013-08-26 10:06:00,76.2,70.0,30.17,SW,222,2.0,8.0,81,0.00,,,0.00,WUHU216DAVISVP2,2013-08-26 14:06:00,
2013-08-26 10:11:00,76.8,71.0,30.17,WSW,246,4.0,8.0,82,0.00,,,0.00,WUHU216DAVISVP2,2013-08-26 14:11:00,
2013-08-26 10:16:00,77.4,71.2,30.17,SSW,201,2.0,8.0,81,0.00,,,0.00,WUHU216DAVISVP2,2013-08-26 14:16:00,
2013-08-26 10:21:00,77.7,71.4,30.17,West,274,3.0,8.0,81,0.00,,,0.00,WUHU216DAVISVP2,2013-08-26 14:21:00,
2013-08-26 10:26:00,78.2,71.9,30.17,WSW,240,3.0,8.0,81,0.00,,,0.00,WUHU216DAVISVP2,2013-08-26 14:26:00,
2013-08-26 10:31:00,78.3,72.0,30.17,WSW,256,2.0,10.0,81,0.00,,,0.00,WUHU216DAVISVP2,2013-08-26 14:31:00,
2013-08-26 10:36:00,78.5,72.2,30.17,South,181,4.0,10.0,81,0.00,,,0.00,WUHU216DAVISVP2,2013-08-26 14:36:00,
2013-08-26 10:41:00,78.5,71.8,30.17,WSW,250,4.0,10.0,80,0.00,,,0.00,WUHU216DAVISVP2,2013-08-26 14:41:00,
2013-08-26 10:46:00,78.6,72.3,30.17,SW,228,6.0,10.0,81,0.00,,,0.00,WUHU216DAVISVP2,2013-08-26 14:46:00,
2013-08-26 10:51:00,78.8,72.1,30.17,WSW,248,1.0,10.0,80,0.00,,,0.00,WUHU216DAVISVP2,2013-08-26 14:51:00,
2013-08-26 10:56:00,79.5,73.3,30.17,WSW,243,4.0,10.0,81,0.00,,,0.00,WUHU216DAVISVP2,2013-08-26 14:56:00,
2013-08-26 11:01:00,79.5,72.9,30.17,WNW,302,2.0,9.0,80,0.00,,,0.00,WUHU216DAVISVP2,2013-08-26 15:01:00,
2013-08-26 11:06:00,79.5,73.3,30.17,SW,228,4.0,8.0,81,0.00,,,0.00,WUHU216DAVISVP2,2013-08-26 15:06:00,
2013-08-26 11:11:00,79.8,72.8,30.17,WSW,239,2.0,8.0,79,0.00,,,0.00,WUHU216DAVISVP2,2013-08-26 15:11:00,
2013-08-26 11:16:00,80.1,73.5,30.17,WSW,247,2.0,7.0,80,0.00,,,0.00,WUHU216DAVISVP2,2013-08-26 15:16:00,
2013-08-26 11:21:00,80.1,72.4,30.17,SW,228,6.0,10.0,77,0.00,,,0.00,WUHU216DAVISVP2,2013-08-26 15:21:00,
2013-08-26 11:26:00,80.0,73.0,30.17,WSW,243,1.0,10.0,79,0.00,,,0.00,WUHU216DAVISVP2,2013-08-26 15:26:00,
2013-08-26 11:31:00,80.3,73.0,30.17,WSW,243,4.0,9.0,78,0.00,,,0.00,WUHU216DAVISVP2,2013-08-26 15:31:00,
2013-08-26 11:36:00,80.7,73.0,30.17,WSW,250,1.0,9.0,77,0.00,,,0.00,WUHU216DAVISVP2,2013-08-26 15:36:00,
2013-08-26 11:41:00,80.9,73.2,30.17,WNW,287,2.0,8.0,77,0.00,,,0.00,WUHU216DAVISVP2,2013-08-26 15:41:00,
2013-08-26 11:46:00,81.1,73.4,30.17,WSW,240,3.0,8.0,77,0.00,,,0.00,WUHU216DAVISVP2,2013-08-26 15:46:00,
2013-08-26 11:51:00,81.5,74.1,30.17,WSW,256,0.0,8.0,78,0.00,,,0.00,WUHU216DAVISVP2,2013-08-26 15:51:00,
2013-08-26 11:56:00,81.8,72.9,30.17,WSW,238,3.0,8.0,74,0.00,,,0.00,WUHU216DAVISVP2,2013-08-26 15:56:00,
2013-08-26 12:01:00,82.1,73.6,30.17,West,259,1.0,8.0,75,0.00,,,0.00,WUHU216DAVISVP2,2013-08-26 16:01:00,
2013-08-26 12:06:00,82.4,73.9,30.17,SW,229,3.0,8.0,75,0.00,,,0.00,WUHU216DAVISVP2,2013-08-26 16:06:00,
2013-08-26 12:11:00,82.7,73.4,30.17,SW,228,2.0,8.0,73,0.00,,,0.00,WUHU216DAVISVP2,2013-08-26 16:11:00,
2013-08-26 12:16:00,82.6,72.9,30.17,WSW,243,0.0,8.0,72,0.00,,,0.00,WUHU216DAVISVP2,2013-08-26 16:16:00,
2013-08-26 12:21:00,82.8,73.5,30.17,SW,224,3.0,9.0,73,0.00,,,0.00,WUHU216DAVISVP2,2013-08-26 16:21:00,
2013-08-26 12:26:00,82.8,73.1,30.17,WSW,246,5.0,9.0,72,0.00,,,0.00,WUHU216DAVISVP2,2013-08-26 16:26:00,
2013-08-26 12:31:00,83.0,73.3,30.17,SW,231,0.0,8.0,72,0.00,,,0.00,WUHU216DAVISVP2,2013-08-26 16:31:00,
2013-08-26 12:36:00,83.0,73.3,30.16,West,263,1.0,8.0,72,0.00,,,0.00,WUHU216DAVISVP2,2013-08-26 16:36:00,
2013-08-26 12:41:00,83.3,74.0,30.16,West,260,2.0,7.0,73,0.00,,,0.00,WUHU216DAVISVP2,2013-08-26 16:41:00,
2013-08-26 12:46:00,83.7,75.1,30.15,WSW,242,2.0,7.0,75,0.00,,,0.00,WUHU216DAVISVP2,2013-08-26 16:46:00,
2013-08-26 12:51:00,84.3,74.1,30.15,WSW,240,2.0,7.0,71,0.00,,,0.00,WUHU216DAVISVP2,2013-08-26 16:51:00,
2013-08-26 12:56:00,84.2,73.6,30.15,SSW,212,1.0,8.0,70,0.00,,,0.00,WUHU216DAVISVP2,2013-08-26 16:56:00,
2013-08-26 13:01:00,83.7,73.1,30.15,WSW,250,4.0,8.0,70,0.00,,,0.00,WUHU216DAVISVP2,2013-08-26 17:01:00,
2013-08-26 13:06:00,83.4,72.8,30.15,West,265,1.0,7.0,70,0.00,,,0.00,WUHU216DAVISVP2,2013-08-26 17:06:00,
2013-08-26 13:11:00,83.2,73.0,30.15,SW,231,4.0,7.0,71,0.00,,,0.00,WUHU216DAVISVP2,2013-08-26 17:11:00,
2013-08-26 13:16:00,83.1,73.4,30.15,WSW,250,1.0,7.0,72,0.00,,,0.00,WUHU216DAVISVP2,2013-08-26 17:16:00,
2013-08-26 13:21:00,83.6,75.0,30.14,WSW,253,2.0,7.0,75,0.00,,,0.00,WUHU216DAVISVP2,2013-08-26 17:21:00,
2013-08-26 13:26:00,83.6,73.8,30.14,West,264,4.0,7.0,72,0.00,,,0.00,WUHU216DAVISVP2,2013-08-26 17:26:00,
2013-08-26 13:31:00,83.5,73.7,30.14,SW,226,4.0,7.0,72,0.00,,,0.00,WUHU216DAVISVP2,2013-08-26 17:31:00,
2013-08-26 13:36:00,83.6,74.0,30.14,WNW,294,1.0,7.0,73,0.00,,,0.00,WUHU216DAVISVP2,2013-08-26 17:36:00,
2013-08-26 13:41:00,83.8,73.8,30.13,SW,217,4.0,7.0,72,0.00,,,0.00,WUHU216DAVISVP2,2013-08-26 17:41:00,
2013-08-26 13:46:00,83.7,73.5,30.13,WSW,240,2.0,8.0,71,0.00,,,0.00,WUHU216DAVISVP2,2013-08-26 17:46:00,
2013-08-26 13:51:00,83.6,73.6,30.13,NW,306,4.0,8.0,72,0.00,,,0.00,WUHU216DAVISVP2,2013-08-26 17:51:00,
2013-08-26 13:56:00,83.4,73.0,30.12,SW,216,2.0,9.0,71,0.00,,,0.00,WUHU216DAVISVP2,2013-08-26 17:56:00,
2013-08-26 14:01:00,83.6,74.0,30.12,SW,217,2.0,10.0,73,0.00,,,0.00,WUHU216DAVISVP2,2013-08-26 18:01:00,
2013-08-26 14:06:00,83.7,74.1,30.12,SW,224,4.0,10.0,73,0.00,,,0.00,WUHU216DAVISVP2,2013-08-26 18:06:00,
2013-08-26 14:11:00,83.8,73.4,30.12,SSW,201,6.0,10.0,71,0.00,,,0.00,WUHU216DAVISVP2,2013-08-26 18:11:00,
2013-08-26 14:16:00,84.1,73.7,30.12,SW,222,2.0,10.0,71,0.00,,,0.00,WUHU216DAVISVP2,2013-08-26 18:16:00,
2013-08-26 14:21:00,84.6,75.2,30.12,SW,236,2.0,10.0,73,0.00,,,0.00,WUHU216DAVISVP2,2013-08-26 18:21:00,
2013-08-26 14:26:00,85.0,74.8,30.12,SW,219,5.0,9.0,71,0.00,,,0.00,WUHU216DAVISVP2,2013-08-26 18:26:00,
2013-08-26 14:31:00,85.0,74.8,30.11,West,269,4.0,9.0,71,0.00,,,0.00,WUHU216DAVISVP2,2013-08-26 18:31:00,
2013-08-26 14:36:00,85.2,73.7,30.11,West,259,1.0,9.0,68,0.00,,,0.00,WUHU216DAVISVP2,2013-08-26 18:36:00,
2013-08-26 14:41:00,85.1,73.6,30.11,West,264,6.0,9.0,68,0.00,,,0.00,WUHU216DAVISVP2,2013-08-26 18:41:00,
2013-08-26 14:46:00,85.3,74.2,30.11,SW,224,0.0,9.0,69,0.00,,,0.00,WUHU216DAVISVP2,2013-08-26 18:46:00,
2013-08-26 14:51:00,85.4,73.9,30.11,WSW,240,4.0,11.0,68,0.00,,,0.00,WUHU216DAVISVP2,2013-08-26 18:51:00,
2013-08-26 14:56:00,85.6,74.1,30.11,SW,233,2.0,11.0,68,0.00,,,0.00,WUHU216DAVISVP2,2013-08-26 18:56:00,
2013-08-26 15:01:00,85.8,74.3,30.10,SW,225,2.0,10.0,68,0.00,,,0.00,WUHU216DAVISVP2,2013-08-26 19:01:00,
2013-08-26 15:06:00,85.7,74.2,30.10,WSW,240,6.0,10.0,68,0.00,,,0.00,WUHU216DAVISVP2,2013-08-26 19:06:00,
2013-08-26 15:11:00,85.2,73.3,30.10,WSW,253,4.0,10.0,67,0.00,,,0.00,WUHU216DAVISVP2,2013-08-26 19:11:00,
2013-08-26 15:16:00,84.7,73.7,30.09,WSW,243,2.0,11.0,69,0.00,,,0.00,WUHU216DAVISVP2,2013-08-26 19:16:00,
2013-08-26 15:21:00,84.5,73.9,30.09,SW,225,3.0,11.0,70,0.00,,,0.00,WUHU216DAVISVP2,2013-08-26 19:21:00,
2013-08-26 15:26:00,84.5,73.9,30.09,SW,217,2.0,10.0,70,0.00,,,0.00,WUHU216DAVISVP2,2013-08-26 19:26:00,
2013-08-26 15:31:00,84.5,73.9,30.08,SW,231,3.0,10.0,70,0.00,,,0.00,WUHU216DAVISVP2,2013-08-26 19:31:00,
2013-08-26 15:36:00,84.4,73.4,30.08,SW,233,2.0,7.0,69,0.00,,,0.00,WUHU216DAVISVP2,2013-08-26 19:36:00,
2013-08-26 15:41:00,84.3,73.7,30.08,SSW,207,2.0,6.0,70,0.00,,,0.00,WUHU216DAVISVP2,2013-08-26 19:41:00,
2013-08-26 15:46:00,84.1,73.9,30.08,WSW,237,5.0,7.0,71,0.00,,,0.00,WUHU216DAVISVP2,2013-08-26 19:46:00,
2013-08-26 15:51:00,84.0,73.4,30.08,SW,228,3.0,7.0,70,0.00,,,0.00,WUHU216DAVISVP2,2013-08-26 19:51:00,
2013-08-26 15:56:00,83.8,73.6,30.07,WSW,240,3.0,8.0,71,0.00,,,0.00,WUHU216DAVISVP2,2013-08-26 19:56:00,
2013-08-26 16:01:00,83.8,73.6,30.07,SW,236,2.0,8.0,71,0.00,,,0.00,WUHU216DAVISVP2,2013-08-26 20:01:00,
2013-08-26 16:06:00,83.9,74.5,30.06,SSW,210,3.0,8.0,73,0.00,,,0.00,WUHU216DAVISVP2,2013-08-26 20:06:00,
2013-08-26 16:11:00,84.0,74.6,30.06,WSW,239,4.0,8.0,73,0.00,,,0.00,WUHU216DAVISVP2,2013-08-26 20:11:00,
2013-08-26 16:16:00,83.9,74.5,30.06,SW,218,3.0,8.0,73,0.00,,,0.00,WUHU216DAVISVP2,2013-08-26 20:16:00,
2013-08-26 16:21:00,83.7,73.9,30.06,SW,221,3.0,8.0,72,0.00,,,0.00,WUHU216DAVISVP2,2013-08-26 20:21:00,
2013-08-26 16:26:00,83.9,74.1,30.06,SW,222,3.0,7.0,72,0.00,,,0.00,WUHU216DAVISVP2,2013-08-26 20:26:00,
2013-08-26 16:31:00,84.0,74.6,30.06,SSW,204,2.0,7.0,73,0.00,,,0.00,WUHU216DAVISVP2,2013-08-26 20:31:00,
2013-08-26 16:36:00,84.1,73.9,30.06,WSW,256,6.0,9.0,71,0.00,,,0.00,WUHU216DAVISVP2,2013-08-26 20:36:00,
2013-08-26 16:41:00,83.9,74.1,30.05,SW,222,0.0,9.0,72,0.00,,,0.00,WUHU216DAVISVP2,2013-08-26 20:41:00,
2013-08-26 16:46:00,83.8,74.0,30.06,SW,236,4.0,9.0,72,0.00,,,0.00,WUHU216DAVISVP2,2013-08-26 20:46:00,
2013-08-26 16:51:00,83.9,74.5,30.05,WSW,249,3.0,8.0,73,0.00,,,0.00,WUHU216DAVISVP2,2013-08-26 20:51:00,
2013-08-26 16:56:00,83.9,74.1,30.05,SW,228,4.0,6.0,72,0.00,,,0.00,WUHU216DAVISVP2,2013-08-26 20:56:00,
2013-08-26 17:01:00,83.9,74.5,30.05,SW,225,3.0,6.0,73,0.00,,,0.00,WUHU216DAVISVP2,2013-08-26 21:01:00,
2013-08-26 17:06:00,83.9,74.5,30.05,WSW,238,3.0,6.0,73,0.00,,,0.00,WUHU216DAVISVP2,2013-08-26 21:06:00,
2013-08-26 17:11:00,83.9,74.1,30.05,SW,234,3.0,6.0,72,0.00,,,0.00,WUHU216DAVISVP2,2013-08-26 21:11:00,
2013-08-26 17:16:00,83.8,74.4,30.05,SW,233,3.0,7.0,73,0.00,,,0.00,WUHU216DAVISVP2,2013-08-26 21:16:00,
2013-08-26 17:21:00,83.7,74.3,30.04,SW,219,5.0,8.0,73,0.00,,,0.00,WUHU216DAVISVP2,2013-08-26 21:21:00,
2013-08-26 17:26:00,83.4,73.6,30.04,SSW,201,2.0,8.0,72,0.00,,,0.00,WUHU216DAVISVP2,2013-08-26 21:26:00,
2013-08-26 17:31:00,83.3,73.1,30.04,SW,222,2.0,8.0,71,0.00,,,0.00,WUHU216DAVISVP2,2013-08-26 21:31:00,
2013-08-26 17:36:00,83.4,73.6,30.05,WSW,248,2.0,8.0,72,0.00,,,0.00,WUHU216DAVISVP2,2013-08-26 21:36:00,
2013-08-26 17:41:00,83.5,73.3,30.05,SW,228,1.0,8.0,71,0.00,,,0.00,WUHU216DAVISVP2,2013-08-26 21:41:00,
2013-08-26 17:46:00,83.6,73.4,30.05,SSW,204,2.0,8.0,71,0.00,,,0.00,WUHU216DAVISVP2,2013-08-26 21:46:00,
2013-08-26 17:51:00,83.6,73.8,30.05,SW,217,2.0,7.0,72,0.00,,,0.00,WUHU216DAVISVP2,2013-08-26 21:51:00,
2013-08-26 17:56:00,83.5,73.3,30.05,SW,219,3.0,7.0,71,0.00,,,0.00,WUHU216DAVISVP2,2013-08-26 21:56:00,
2013-08-26 18:01:00,83.6,73.8,30.05,SW,236,1.0,5.0,72,0.00,,,0.00,WUHU216DAVISVP2,2013-08-26 22:01:00,
2013-08-26 18:06:00,84.1,74.3,30.06,WSW,238,3.0,5.0,72,0.00,,,0.00,WUHU216DAVISVP2,2013-08-26 22:06:00,
2013-08-26 18:11:00,84.4,73.4,30.06,SW,218,7.0,7.0,69,0.00,,,0.00,WUHU216DAVISVP2,2013-08-26 22:11:00,
2013-08-26 18:16:00,84.4,72.5,30.05,SSW,212,7.0,7.0,67,0.00,,,0.00,WUHU216DAVISVP2,2013-08-26 22:16:00,
2013-08-26 18:21:00,84.2,71.9,30.05,WSW,240,1.0,11.0,66,0.00,,,0.00,WUHU216DAVISVP2,2013-08-26 22:21:00,
2013-08-26 18:26:00,83.9,72.0,30.05,SW,233,2.0,11.0,67,0.00,,,0.00,WUHU216DAVISVP2,2013-08-26 22:26:00,
2013-08-26 18:31:00,83.7,72.7,30.05,South,191,1.0,10.0,69,0.00,,,0.00,WUHU216DAVISVP2,2013-08-26 22:31:00,
2013-08-26 18:36:00,83.5,72.9,30.05,SW,222,1.0,8.0,70,0.00,,,0.00,WUHU216DAVISVP2,2013-08-26 22:36:00,
2013-08-26 18:41:00,83.3,73.1,30.05,SW,226,0.0,7.0,71,0.00,,,0.00,WUHU216DAVISVP2,2013-08-26 22:41:00,
2013-08-26 18:46:00,83.1,73.4,30.05,SW,224,0.0,3.0,72,0.00,,,0.00,WUHU216DAVISVP2,2013-08-26 22:46:00,
2013-08-26 18:51:00,82.8,73.5,30.05,SW,228,1.0,3.0,73,0.00,,,0.00,WUHU216DAVISVP2,2013-08-26 22:51:00,
2013-08-26 18:56:00,82.7,73.4,30.05,WSW,243,1.0,5.0,73,0.00,,,0.00,WUHU216DAVISVP2,2013-08-26 22:56:00,
2013-08-26 19:01:00,82.7,73.4,30.05,WSW,240,0.0,5.0,73,0.00,,,0.00,WUHU216DAVISVP2,2013-08-26 23:01:00,
2013-08-26 19:06:00,82.8,73.5,30.05,SW,231,0.0,4.0,73,0.00,,,0.00,WUHU216DAVISVP2,2013-08-26 23:06:00,
2013-08-26 19:11:00,82.9,73.6,30.05,SW,233,1.0,4.0,73,0.00,,,0.00,WUHU216DAVISVP2,2013-08-26 23:11:00,
2013-08-26 19:16:00,83.0,73.7,30.05,SW,232,2.0,4.0,73,0.00,,,0.00,WUHU216DAVISVP2,2013-08-26 23:16:00,
2013-08-26 19:21:00,82.9,73.6,30.05,SSW,200,0.0,3.0,73,0.00,,,0.00,WUHU216DAVISVP2,2013-08-26 23:21:00,
2013-08-26 19:26:00,82.7,73.8,30.05,SW,225,0.0,3.0,74,0.00,,,0.00,WUHU216DAVISVP2,2013-08-26 23:26:00,
2013-08-26 19:31:00,82.5,73.8,30.05,SW,225,0.0,2.0,75,0.00,,,0.00,WUHU216DAVISVP2,2013-08-26 23:31:00,
2013-08-26 19:36:00,82.1,73.8,30.05,SW,226,0.0,2.0,76,0.00,,,0.00,WUHU216DAVISVP2,2013-08-26 23:36:00,
2013-08-26 19:41:00,81.6,73.7,30.05,SW,226,0.0,1.0,77,0.00,,,0.00,WUHU216DAVISVP2,2013-08-26 23:41:00,
2013-08-26 19:46:00,81.0,73.5,30.05,SW,226,0.0,1.0,78,0.00,,,0.00,WUHU216DAVISVP2,2013-08-26 23:46:00,
2013-08-26 19:51:00,80.4,73.3,30.05,SW,225,0.0,1.0,79,0.00,,,0.00,WUHU216DAVISVP2,2013-08-26 23:51:00,
2013-08-26 19:56:00,79.9,73.3,30.05,SW,225,0.0,0.0,80,0.00,,,0.00,WUHU216DAVISVP2,2013-08-26 23:56:00,
2013-08-26 20:01:00,79.4,73.2,30.05,SW,225,0.0,0.0,81,0.00,,,0.00,WUHU216DAVISVP2,2013-08-27 00:01:00,
2013-08-26 20:06:00,79.1,72.8,30.05,SW,225,0.0,0.0,81,0.00,,,0.00,WUHU216DAVISVP2,2013-08-27 00:06:00,
2013-08-26 20:11:00,78.8,72.9,30.05,SW,225,0.0,0.0,82,0.00,,,0.00,WUHU216DAVISVP2,2013-08-27 00:11:00,
2013-08-26 20:16:00,78.3,72.8,30.05,SW,225,0.0,0.0,83,0.00,,,0.00,WUHU216DAVISVP2,2013-08-27 00:16:00,
2013-08-26 20:21:00,77.5,72.3,30.05,SW,225,0.0,0.0,84,0.00,,,0.00,WUHU216DAVISVP2,2013-08-27 00:21:00,
2013-08-26 20:26:00,76.7,71.9,30.05,SW,225,0.0,0.0,85,0.00,,,0.00,WUHU216DAVISVP2,2013-08-27 00:26:00,
2013-08-26 20:31:00,76.1,71.6,30.05,SW,214,0.0,1.0,86,0.00,,,0.00,WUHU216DAVISVP2,2013-08-27 00:31:00,
2013-08-26 20:36:00,75.6,71.1,30.05,SW,214,0.0,1.0,86,0.00,,,0.00,WUHU216DAVISVP2,2013-08-27 00:36:00,
2013-08-26 20:41:00,75.3,71.2,30.05,SW,214,0.0,1.0,87,0.00,,,0.00,WUHU216DAVISVP2,2013-08-27 00:41:00,
2013-08-26 20:46:00,74.9,70.8,30.05,SW,214,0.0,1.0,87,0.00,,,0.00,WUHU216DAVISVP2,2013-08-27 00:46:00,
2013-08-26 20:51:00,74.7,70.9,30.05,SW,217,0.0,0.0,88,0.00,,,0.00,WUHU216DAVISVP2,2013-08-27 00:51:00,
2013-08-26 20:56:00,74.5,70.7,30.05,SW,217,0.0,0.0,88,0.00,,,0.00,WUHU216DAVISVP2,2013-08-27 00:56:00,
2013-08-26 21:01:00,74.3,70.5,30.05,SW,217,0.0,0.0,88,0.00,,,0.00,WUHU216DAVISVP2,2013-08-27 01:01:00,
2013-08-26 21:06:00,74.1,70.3,30.05,SW,217,0.0,0.0,88,0.00,,,0.00,WUHU216DAVISVP2,2013-08-27 01:06:00,
2013-08-26 21:11:00,73.9,70.1,30.05,SW,217,0.0,0.0,88,0.00,,,0.00,WUHU216DAVISVP2,2013-08-27 01:11:00,
2013-08-26 21:16:00,73.7,69.9,30.05,SSW,203,0.0,0.0,88,0.00,,,0.00,WUHU216DAVISVP2,2013-08-27 01:16:00,
2013-08-26 21:21:00,73.5,70.1,30.05,SSW,212,0.0,0.0,89,0.00,,,0.00,WUHU216DAVISVP2,2013-08-27 01:21:00,
2013-08-26 21:26:00,73.4,70.0,30.05,WSW,238,0.0,1.0,89,0.00,,,0.00,WUHU216DAVISVP2,2013-08-27 01:26:00,
2013-08-26 21:31:00,73.4,70.0,30.05,SSW,198,0.0,1.0,89,0.00,,,0.00,WUHU216DAVISVP2,2013-08-27 01:31:00,
2013-08-26 21:36:00,73.5,70.4,30.05,SW,222,1.0,1.0,90,0.00,,,0.00,WUHU216DAVISVP2,2013-08-27 01:36:00,
2013-08-26 21:41:00,73.5,70.4,30.05,SW,217,0.0,2.0,90,0.00,,,0.00,WUHU216DAVISVP2,2013-08-27 01:41:00,
2013-08-26 21:46:00,73.5,70.4,30.05,SW,228,0.0,2.0,90,0.00,,,0.00,WUHU216DAVISVP2,2013-08-27 01:46:00,
2013-08-26 21:51:00,73.5,70.4,30.05,SW,221,0.0,2.0,90,0.00,,,0.00,WUHU216DAVISVP2,2013-08-27 01:51:00,
2013-08-26 21:56:00,73.3,70.2,30.04,SSW,211,0.0,2.0,90,0.00,,,0.00,WUHU216DAVISVP2,2013-08-27 01:56:00,
2013-08-26 22:01:00,73.3,70.2,30.04,SW,223,0.0,1.0,90,0.00,,,0.00,WUHU216DAVISVP2,2013-08-27 02:01:00,
2013-08-26 22:06:00,73.3,70.2,30.04,South,190,1.0,2.0,90,0.00,,,0.00,WUHU216DAVISVP2,2013-08-27 02:06:00,
2013-08-26 22:11:00,73.5,70.4,30.04,SSW,210,1.0,3.0,90,0.00,,,0.00,WUHU216DAVISVP2,2013-08-27 02:11:00,
2013-08-26 22:16:00,73.7,70.6,30.05,SW,231,0.0,3.0,90,0.00,,,0.00,WUHU216DAVISVP2,2013-08-27 02:16:00,
2013-08-26 22:21:00,73.6,70.2,30.05,SW,221,0.0,3.0,89,0.00,,,0.00,WUHU216DAVISVP2,2013-08-27 02:21:00,
2013-08-26 22:26:00,73.4,70.3,30.05,SW,221,0.0,3.0,90,0.00,,,0.00,WUHU216DAVISVP2,2013-08-27 02:26:00,
2013-08-26 22:31:00,73.3,70.2,30.05,SW,233,0.0,2.0,90,0.00,,,0.00,WUHU216DAVISVP2,2013-08-27 02:31:00,
2013-08-26 22:36:00,73.0,69.9,30.05,SW,233,0.0,2.0,90,0.00,,,0.00,WUHU216DAVISVP2,2013-08-27 02:36:00,
2013-08-26 22:41:00,72.7,69.6,30.05,SW,236,0.0,1.0,90,0.00,,,0.00,WUHU216DAVISVP2,2013-08-27 02:41:00,
2013-08-26 22:46:00,72.3,69.5,30.05,WSW,243,0.0,1.0,91,0.00,,,0.00,WUHU216DAVISVP2,2013-08-27 02:46:00,
2013-08-26 22:51:00,71.9,69.1,30.05,WSW,238,0.0,1.0,91,0.00,,,0.00,WUHU216DAVISVP2,2013-08-27 02:51:00,
2013-08-26 22:56:00,71.8,69.3,30.05,SW,231,0.0,1.0,92,0.00,,,0.00,WUHU216DAVISVP2,2013-08-27 02:56:00,
2013-08-26 23:01:00,71.8,69.3,30.05,SW,228,0.0,1.0,92,0.00,,,0.00,WUHU216DAVISVP2,2013-08-27 03:01:00,
2013-08-26 23:06:00,71.8,69.7,30.05,SW,223,0.0,1.0,93,0.00,,,0.00,WUHU216DAVISVP2,2013-08-27 03:06:00,
2013-08-26 23:11:00,71.8,69.7,30.05,SW,228,1.0,1.0,93,0.00,,,0.00,WUHU216DAVISVP2,2013-08-27 03:11:00,
2013-08-26 23:16:00,71.8,69.7,30.05,WSW,243,0.0,2.0,93,0.00,,,0.00,WUHU216DAVISVP2,2013-08-27 03:16:00,
2013-08-26 23:21:00,71.6,69.1,30.05,SW,225,1.0,2.0,92,0.00,,,0.00,WUHU216DAVISVP2,2013-08-27 03:21:00,
2013-08-26 23:26:00,71.4,69.2,30.05,WSW,243,0.0,2.0,93,0.00,,,0.00,WUHU216DAVISVP2,2013-08-27 03:26:00,
2013-08-26 23:31:00,71.1,69.0,30.05,SW,236,0.0,4.0,93,0.00,,,0.00,WUHU216DAVISVP2,2013-08-27 03:31:00,
2013-08-26 23:36:00,71.1,69.3,30.05,SW,236,1.0,4.0,94,0.00,,,0.00,WUHU216DAVISVP2,2013-08-27 03:36:00,
2013-08-26 23:41:00,71.1,69.3,30.05,WSW,242,0.0,3.0,94,0.00,,,0.00,WUHU216DAVISVP2,2013-08-27 03:41:00,
2013-08-26 23:46:00,71.0,69.2,30.04,WSW,238,1.0,3.0,94,0.00,,,0.00,WUHU216DAVISVP2,2013-08-27 03:46:00,
2013-08-26 23:51:00,71.0,69.2,30.04,SW,233,0.0,3.0,94,0.00,,,0.00,WUHU216DAVISVP2,2013-08-27 03:51:00,
2013-08-26 23:56:00,71.1,69.3,30.04,SW,225,1.0,3.0,94,0.00,,,0.00,WUHU216DAVISVP2,2013-08-27 03:56:00,